Temp
28 24 23 24 23 25 27 29 27 29 30 28 27 28 27 28 28 26 26 27 25 25 25 25 25 24 24 23 23 23 23 22 22 21 21 20 20 20 20 20 20 19 19 19
24 24 26 26 28 28 30 29 27 29 31 29 26 28 27 26 26 27 27 26 26 25 25 25 25 24 24 24 24 23 23 23 22 21 21 21 21 21 20 20 20 19 19 19
24 27 29 29 30 29 26 28 29 30 29 28 27 26 27 26 25 26 26 27 26 26 25 25 24 24 23 23 23 24 23 23 23 22 21 21 21 20 20 20 20 20 19 19
25 28 31 31 30 27 27 29 29 28 26 26 27 24 26 24 24 24 25 26 27 26 25 25 24 24 23 24 24 23 23 22 22 22 21 21 21 21 21 20 20 20 20 20
27 30 30 29 30 29 29 30 29 29 26 25 26 23 23 23 22 23 24 25 26 26 26 25 25 24 24 23 23 23 23 22 21 21 21 20 20 20 20 20 20 20 19 19
27 31 31 30 31 31 31 28 24 21 21 22 24 24 23 22 24 23 24 25 25 25 25 25 25 24 24 23 23 22 22 21 21 20 20 20 20 20 19 20 20 19 20 20
26 28 30 31 29 27 25 21 20 22 20 22 24 24 23 24 25 25 24 25 26 25 25 24 24 23 23 23 23 23 22 21 21 20 20 20 20 20 19 19 19 19 20 19
24 25 28 29 28 27 28 22 20 24 22 22 23 24 24 24 26 26 27 26 25 25 25 24 24 24 24 24 23 23 23 23 22 22 22 21 21 20 20 19 19 19 19 19
24 27 29 30 30 27 28 24 23 21 20 21 22 25 25 25 24 24 25 25 24 25 25 25 24 24 24 23 23 23 23 22 22 22 22 21 21 21 21 20 19 19 19 19
26 26 27 30 29 29 26 25 23 18 23 24 22 24 21 25 23 23 23 24 25 25 24 24 24 23 23 23 22 22 22 21 21 21 21 21 20 20 20 20 20 19 19 19
24 23 26 27 27 26 25 24 21 19 18 19 20 21 21 24 21 21 22 25 25 24 24 23 23 23 23 23 23 22 22 22 21 21 21 20 20 20 20 19 19 19 19 18
25 20 23 26 26 26 23 23 20 19 22 18 18 20 22 23 23 24 23 24 24 25 24 23 23 23 23 22 22 22 22 22 21 21 20 20 19 19 19 19 19 18 18 18
24 20 20 22 22 22 25 25 23 18 17 21 19 20 23 22 21 23 23 23 24 24 23 23 22 22 22 22 22 21 20 20 20 19 19 19 19 19 18 18 18 17 18 17
25 18 19 20 22 22 24 24 25 20 18 19 19 22 23 23 19 21 23 23 23 22 22 22 22 21 21 21 20 20 20 19 19 18 18 18 18 17 18 17 17 17 17 17
20 21 23 22 23 24 24 24 24 24 23 22 22 21 22 19 18 21 22 22 22 22 21 21 20 20 20 20 20 20 19 18 18 17 18 17 17 17 16 16 17 17 17 17
19 19 22 23 23 22 23 23 23 23 24 23 21 21 20 21 22 21 22 22 22 21 20 20 20 20 20 20 19 19 18 18 17 17 17 16 16 16 16 16 16 16 16 16
19 17 16 20 20 21 20 23 23 22 22 21 22 20 20 20 20 20 21 21 20 20 20 20 20 20 20 19 19 18 17 17 17 16 16 16 15 15 15 15 16 15 15 15
18 17 15 17 18 19 19 21 23 23 20 20 19 18 19 20 20 20 20 20 20 20 20 20 20 19 19 19 18 17 17 17 16 15 15 15 14 14 14 14 15 15 14 15
18 15 16 16 16 18 21 22 23 23 20 19 18 18 19 19 19 19 20 20 20 20 19 19 19 18 18 17 17 17 17 17 16 16 14 14 14 14 14 14 14 14 14 15
15 14 16 14 17 17 18 22 23 22 17 19 19 19 19 20 15 15 19 19 19 19 19 18 18 18 17 17 16 17 17 16 16 15 14 13 13 13 14 14 14 14 14 15
17 16 17 14 16 17 19 22 24 20 17 19 19 19 19 17 18 19 19 19 19 18 18 17 18 18 17 16 16 17 16 16 14 14 13 13 13 13 13 14 14 14 14 15
17 16 15 14 16 17 21 21 20 18 19 20 20 19 19 19 19 19 19 19 18 18 18 19 18 17 16 16 16 16 16 15 13 13 13 13 13 13 13 14 14 14 14 14
18 16 16 15 15 18 20 19 19 20 19 19 19 19 19 19 18 17 17 17 17 17 17 17 16 15 15 16 15 15 15 14 13 13 13 13 13 13 13 14 14 14 14 14
16 18 16 16 18 17 19 19 20 20 19 19 19 18 18 17 17 17 16 16 15 16 16 17 16 16 15 15 15 14 13 12 12 12 12 12 12 13 13 14 14 14 14 14
17 17 15 15 17 18 18 18 19 19 19 19 18 18 17 17 17 16 15 15 15 15 16 16 15 15 14 14 14 13 12 11 11 11 11 11 11 12 12 13 14 14 14 14
16 15 14 14 17 15 14 16 18 18 18 18 18 17 16 16 16 15 15 15 15 13 13 13 14 14 13 13 13 12 12 11 11 11 10 10 11 11 12 12 13 14 14 14
Height
1502 1511 1517 1506 1503 1500 1500 1498 1508 1494 1486 1492 1496 1499 1496 1493 1494 1499 1504 1510 1516 1519 1523 1527 1530 1535 1539 1543 1546 1548 1549 1551 1554 1556 1558 1560 1561 1563 1563 1564 1565 1567 1568 1569
1508 1514 1495 1493 1492 1494 1493 1500 1505 1493 1484 1488 1499 1500 1498 1493 1497 1495 1499 1505 1511 1519 1525 1527 1530 1532 1536 1540 1541 1545 1547 1549 1550 1552 1554 1557 1558 1559 1561 1563 1562 1563 1564 1565
1513 1497 1488 1491 1489 1496 1503 1502 1501 1500 1490 1489 1498 1512 1507 1502 1499 1499 1502 1505 1509 1514 1519 1524 1528 1528 1533 1537 1540 1540 1542 1546 1548 1550 1553 1554 1555 1554 1555 1557 1558 1559 1560 1561
1501 1486 1487 1489 1494 1496 1507 1492 1493 1497 1508 1524 1498 1544 1515 1508 1507 1503 1505 1507 1511 1515 1519 1521 1522 1527 1530 1533 1538 1539 1542 1546 1548 1550 1551 1551 1551 1550 1551 1554 1555 1556 1556 1557
1501 1489 1490 1495 1492 1489 1499 1488 1492 1494 1505 1511 1509 1532 1522 1513 1515 1510 1508 1509 1513 1516 1518 1521 1525 1528 1534 1535 1537 1541 1545 1547 1548 1549 1548 1549 1549 1549 1550 1551 1551 1552 1553 1553
1490 1484 1484 1486 1485 1485 1486 1493 1500 1508 1517 1541 1513 1520 1526 1519 1505 1508 1508 1510 1513 1516 1519 1522 1525 1528 1531 1536 1540 1542 1544 1546 1546 1546 1547 1546 1546 1546 1546 1547 1547 1547 1548 1547
1492 1487 1481 1481 1490 1489 1495 1517 1550 1546 1553 1548 1510 1516 1515 1500 1496 1497 1504 1509 1513 1516 1520 1523 1525 1528 1530 1533 1536 1538 1541 1542 1544 1544 1544 1544 1544 1543 1542 1543 1543 1543 1542 1541
1516 1516 1485 1477 1488 1499 1498 1514 1549 1553 1560 1544 1514 1528 1512 1492 1497 1500 1504 1508 1513 1517 1520 1523 1525 1527 1530 1533 1534 1536 1538 1540 1540 1540 1540 1539 1541 1540 1538 1537 1537 1537 1536 1535
1511 1505 1480 1479 1481 1488 1500 1518 1509 1537 1540 1546 1533 1513 1503 1498 1502 1505 1507 1511 1515 1518 1520 1522 1525 1526 1528 1530 1532 1533 1532 1533 1535 1535 1535 1535 1535 1534 1533 1532 1531 1529 1528 1527
1490 1509 1489 1485 1484 1487 1495 1497 1526 1540 1551 1550 1540 1528 1533 1510 1510 1508 1509 1511 1515 1517 1519 1522 1524 1526 1528 1530 1530 1531 1531 1532 1531 1531 1531 1530 1529 1528 1528 1527 1525 1525 1522 1521
1482 1497 1501 1489 1496 1503 1505 1510 1518 1528 1542 1561 1565 1544 1508 1505 1506 1507 1508 1511 1514 1517 1519 1521 1524 1526 1528 1529 1529 1529 1529 1529 1529 1527 1526 1526 1525 1524 1523 1521 1518 1517 1516 1514
1477 1500 1513 1500 1490 1488 1495 1504 1514 1541 1538 1545 1549 1543 1504 1501 1502 1506 1510 1512 1514 1516 1520 1522 1523 1524 1525 1526 1526 1526 1526 1525 1524 1523 1521 1520 1519 1517 1515 1513 1511 1510 1507 1506
1475 1505 1526 1517 1506 1496 1503 1501 1506 1517 1527 1535 1551 1542 1506 1501 1505 1506 1508 1512 1515 1517 1518 1519 1521 1522 1523 1524 1524 1524 1523 1522 1521 1517 1515 1514 1512 1510 1506 1503 1500 1499 1498 1497
1471 1501 1511 1529 1515 1509 1511 1508 1504 1516 1536 1534 1535 1521 1510 1507 1506 1508 1509 1512 1513 1515 1517 1519 1520 1521 1522 1522 1522 1521 1518 1516 1514 1511 1509 1506 1504 1500 1496 1493 1490 1488 1488 1486
1478 1501 1498 1502 1501 1501 1504 1506 1507 1510 1513 1525 1519 1518 1506 1504 1506 1507 1508 1510 1513 1515 1516 1517 1518 1519 1519 1518 1517 1515 1513 1511 1507 1504 1501 1499 1496 1492 1488 1485 1482 1479 1477 1475
1482 1506 1498 1506 1501 1505 1506 1504 1504 1505 1505 1507 1512 1511 1499 1499 1503 1506 1506 1508 1510 1512 1513 1515 1516 1516 1515 1514 1512 1509 1507 1504 1500 1496 1493 1491 1488 1484 1481 1478 1474 1471 1468 1466
1488 1501 1515 1520 1511 1509 1522 1506 1505 1505 1501 1504 1510 1503 1501 1503 1502 1504 1506 1506 1508 1510 1510 1510 1510 1511 1510 1508 1506 1503 1500 1496 1492 1488 1485 1482 1478 1475 1472 1470 1467 1464 1461 1458
1491 1501 1513 1525 1517 1537 1512 1498 1498 1503 1504 1500 1500 1501 1500 1501 1503 1505 1507 1507 1508 1509 1509 1508 1507 1507 1506 1503 1500 1497 1493 1488 1483 1479 1476 1473 1469 1467 1465 1463 1460 1457 1455 1451
1482 1501 1517 1527 1533 1518 1504 1497 1499 1502 1511 1505 1507 1507 1506 1507 1508 1508 1507 1507 1506 1505 1505 1503 1503 1502 1500 1498 1495 1490 1485 1480 1473 1469 1468 1466 1464 1461 1458 1456 1453 1450 1448 1444
1487 1492 1506 1526 1527 1531 1507 1492 1491 1492 1519 1506 1505 1507 1506 1506 1515 1509 1507 1506 1504 1503 1501 1499 1499 1498 1496 1493 1489 1484 1477 1471 1467 1462 1461 1460 1459 1456 1454 1451 1448 1445 1442 1437
1497 1500 1508 1518 1519 1510 1491 1486 1487 1509 1518 1502 1502 1502 1503 1505 1505 1503 1503 1502 1500 1498 1496 1497 1495 1491 1488 1485 1481 1475 1469 1463 1461 1458 1456 1455 1454 1453 1450 1447 1445 1441 1437 1432
1500 1507 1510 1511 1514 1515 1485 1486 1496 1495 1494 1497 1499 1500 1501 1501 1502 1501 1501 1499 1497 1494 1492 1490 1486 1484 1482 1478 1473 1469 1462 1457 1454 1453 1452 1451 1450 1448 1446 1443 1441 1437 1434 1430
1497 1492 1497 1500 1501 1487 1486 1485 1488 1490 1494 1497 1498 1499 1499 1499 1498 1499 1499 1497 1493 1490 1487 1484 1480 1478 1477 1472 1467 1460 1456 1451 1450 1450 1448 1446 1445 1444 1441 1439 1436 1433 1431 1428
1487 1483 1490 1492 1489 1489 1489 1490 1491 1492 1494 1496 1497 1496 1496 1495 1494 1493 1491 1489 1487 1484 1480 1477 1474 1470 1468 1466 1461 1456 1451 1449 1447 1447 1444 1443 1441 1439 1437 1436 1433 1430 1429 1426
1492 1488 1493 1496 1493 1491 1492 1492 1492 1493 1494 1495 1493 1493 1492 1491 1490 1488 1486 1484 1481 1478 1474 1471 1467 1464 1462 1459 1455 1452 1448 1446 1444 1443 1440 1438 1436 1435 1433 1431 1429 1427 1426 1425
1492 1495 1497 1499 1491 1491 1495 1494 1493 1492 1493 1492 1491 1489 1488 1487 1485 1483 1482 1479 1473 1469 1465 1463 1461 1459 1457 1453 1451 1448 1445 1442 1440 1439 1437 1434 1432 1431 1430 1428 1426 1425 1423 1423
Wind_Speed
2 3 6 11 9 8 7 4 4 5 4 7 9 3 7 15 28 25 27 31 34 37 38 38 32 36 36 34 32 29 27 26 25 24 23 23 24 26 27 27 21 19 21 21
5 6 14 7 7 7 4 3 6 3 2 5 6 5 3 10 9 29 27 32 29 30 31 33 30 30 34 35 30 32 30 26 26 25 22 22 24 30 30 28 27 25 23 23
6 10 7 7 3 5 4 3 2 1 4 4 7 4 3 4 21 25 25 32 33 33 33 32 32 31 30 35 34 23 30 30 28 26 25 24 22 26 31 33 32 31 30 27
6 8 6 1 3 5 3 3 5 5 4 2 4 3 4 4 6 15 23 31 29 26 27 27 31 29 29 28 22 34 33 29 28 28 28 26 25 27 27 28 28 31 35 35
6 2 4 5 2 4 4 2 3 3 3 4 2 5 5 4 6 11 16 29 28 26 24 22 21 19 24 29 28 21 18 17 19 21 23 24 26 27 26 26 26 27 28 31
7 5 4 6 3 2 1 5 8 6 3 3 4 6 3 8 14 7 12 28 27 24 23 20 16 18 19 19 20 18 14 12 14 15 19 21 23 25 28 28 29 31 31 35
7 6 3 4 4 7 8 7 4 5 5 5 7 4 6 7 14 13 17 27 27 26 23 19 17 18 18 17 16 13 9 10 11 17 22 23 24 25 26 30 32 34 35 38
3 8 4 5 6 6 3 7 5 2 1 5 4 4 5 4 18 26 32 31 29 27 23 21 20 18 15 14 12 9 5 6 8 12 14 18 23 27 30 32 32 33 34 36
4 5 5 5 4 6 3 2 5 6 3 4 2 4 6 7 8 17 20 26 31 29 25 21 19 17 17 16 12 8 5 7 10 11 15 19 18 19 23 26 27 32 33 34
7 3 3 2 6 2 5 4 3 4 2 2 4 2 4 4 7 12 15 26 29 26 24 24 22 21 18 12 8 9 10 12 10 11 16 21 22 21 24 26 27 30 33 32
7 4 4 3 2 3 4 2 6 5 4 4 1 6 5 8 9 11 16 28 27 27 26 24 21 18 14 8 4 5 8 11 15 16 16 19 23 25 28 30 29 29 32 36
0 6 2 3 4 3 6 6 5 5 4 2 5 5 5 1 10 16 18 21 25 22 18 16 11 7 5 3 5 9 13 18 22 24 23 24 22 25 29 30 34 35 36 33
4 2 3 7 7 7 5 4 3 5 3 4 5 5 3 14 14 20 24 22 18 15 14 12 10 6 2 5 10 12 13 16 22 25 25 26 30 32 35 38 35 35 34 35
9 4 6 6 5 3 3 5 5 5 4 3 6 5 6 4 10 14 21 18 14 15 14 10 6 4 1 3 8 13 19 23 25 27 28 30 32 34 36 33 32 31 34 39
5 4 3 3 3 1 2 3 5 1 4 5 7 7 6 11 9 15 24 22 18 13 10 10 7 3 3 8 15 21 23 23 26 28 30 32 32 34 31 29 29 30 32 36
3 2 3 1 4 7 2 4 6 4 1 3 6 5 3 19 22 19 18 15 12 13 15 8 1 4 9 14 19 22 26 25 27 29 29 31 34 34 29 28 27 28 27 27
4 4 4 2 3 6 4 2 3 5 5 6 5 6 7 5 13 18 18 18 16 11 5 1 5 10 15 21 23 23 26 28 32 29 31 31 31 29 29 27 28 29 28 27
5 5 3 3 4 0 7 4 1 1 7 7 8 7 3 9 15 17 13 11 5 1 4 7 9 12 18 21 21 23 27 33 32 31 33 29 26 26 28 29 29 28 27 27
6 5 2 5 4 4 6 5 2 1 2 4 7 6 14 16 15 11 8 3 2 4 5 9 10 12 17 17 23 27 33 38 33 30 27 27 24 27 25 23 22 22 24 23
6 6 5 3 5 7 8 3 7 3 3 3 10 6 6 5 2 4 4 3 2 2 9 7 9 15 18 20 24 32 37 35 32 25 23 24 23 21 19 18 19 20 18 22
3 2 6 4 4 6 5 3 3 4 6 5 12 15 10 3 1 6 4 8 12 10 9 12 20 23 24 23 29 35 35 33 27 21 20 20 20 20 18 18 17 16 18 20
5 4 4 2 3 6 6 4 5 6 10 7 4 3 5 6 7 9 15 15 13 17 20 24 27 24 22 27 29 33 34 29 21 18 17 17 20 18 17 16 17 13 16 18
2 5 4 6 5 2 8 13 9 8 14 9 5 4 7 10 14 15 15 17 22 20 23 26 23 21 27 28 31 30 28 21 16 16 15 16 18 19 18 16 16 13 13 15
7 2 3 3 4 5 14 11 10 8 9 7 7 8 7 5 6 8 13 17 20 24 22 25 26 25 25 26 28 24 19 17 14 17 18 18 17 16 17 16 13 13 13 11
3 6 3 2 4 16 18 10 5 4 4 2 1 6 6 8 10 11 17 24 29 30 23 22 21 20 22 24 25 20 17 16 20 21 18 17 18 18 15 15 15 11 12 11
5 2 2 4 2 13 4 12 7 5 3 2 6 6 4 7 10 13 18 23 28 26 22 20 17 19 20 25 22 19 16 16 15 17 16 17 18 15 15 15 9 14 14 11
Wind_Direction
274 57 249 242 208 220 252 356 113 248 263 95 141 130 160 118 101 102 158 178 181 186 192 197 200 204 202 205 209 216 214 217 220 222 227 226 233 230 235 243 243 247 257 262
5 237 246 246 225 208 333 3 328 342 305 84 142 173 206 112 115 125 125 153 173 177 187 195 198 199 204 201 211 215 222 225 228 231 238 246 252 239 238 237 242 246 246 252
177 249 277 233 348 2 352 7 326 215 9 352 101 9 117 21 107 115 127 140 149 157 177 193 195 199 197 202 209 215 219 224 232 238 238 247 249 245 241 236 238 242 248 253
221 246 196 80 55 107 49 315 33 24 66 219 90 242 229 170 95 114 129 137 139 138 137 169 191 197 193 197 202 211 217 225 233 239 241 248 250 247 245 243 245 244 244 249
262 314 222 102 170 110 206 347 26 321 18 37 340 90 248 137 131 148 140 136 142 146 148 149 165 183 191 195 203 206 226 240 247 251 255 258 261 261 261 259 258 257 253 252
235 273 178 166 162 154 290 26 20 36 85 18 250 140 233 174 172 170 153 145 146 148 152 156 159 165 178 196 205 222 230 251 268 271 272 272 275 276 269 264 263 263 264 263
334 297 260 141 64 3 63 49 359 11 8 224 321 104 229 227 180 160 149 154 159 159 160 161 163 160 169 185 197 207 229 249 265 266 269 271 272 280 280 273 271 268 269 263
182 322 161 149 148 172 119 133 141 158 297 268 326 355 296 74 143 156 163 166 165 164 166 162 161 167 172 182 189 200 233 276 288 304 295 284 270 269 270 270 271 273 275 275
137 353 356 92 136 116 305 52 172 112 357 32 293 27 3 108 113 113 149 161 168 171 167 170 175 182 189 192 199 212 246 267 294 297 300 301 296 295 284 280 281 281 278 273
206 124 298 129 65 15 139 167 38 12 117 276 319 276 218 188 119 139 138 150 169 172 177 181 187 188 185 181 188 213 244 274 275 287 289 297 296 288 291 294 293 282 281 281
147 110 266 78 128 186 9 359 61 114 117 146 11 292 217 186 165 162 153 147 144 141 141 144 141 147 159 173 205 248 282 294 293 294 292 276 279 285 289 291 295 289 285 282
92 131 123 192 306 257 171 174 126 121 244 132 150 261 323 19 134 158 157 151 150 152 145 136 140 152 168 195 268 285 288 291 301 302 288 289 282 288 287 285 281 279 282 274
172 15 64 355 356 5 43 10 93 104 83 184 137 262 343 110 115 145 148 147 143 143 151 156 159 166 206 288 292 292 289 290 291 294 294 292 288 286 293 291 289 276 278 272
95 104 139 177 190 162 328 355 355 97 102 190 209 236 245 174 142 143 141 146 150 146 140 139 142 141 168 296 306 313 313 310 306 303 299 299 299 301 298 292 287 283 272 271
95 119 115 158 196 122 195 325 352 66 205 149 256 209 251 215 170 153 133 126 123 129 145 143 140 164 267 301 315 324 323 312 310 304 299 297 299 306 299 293 290 289 283 279
21 179 104 33 360 34 6 0 3 356 330 238 212 259 230 137 137 143 140 137 139 139 143 138 146 325 325 325 326 327 329 315 308 308 293 294 300 303 295 294 296 297 293 286
88 109 81 220 343 48 354 137 350 297 271 210 279 215 175 169 155 155 151 151 148 147 152 266 327 325 323 320 318 319 317 313 313 301 294 297 298 289 290 292 294 297 297 291
111 93 98 174 45 225 237 250 203 290 16 15 55 27 131 141 131 142 137 127 119 56 303 301 305 299 301 305 312 310 314 321 313 297 295 294 289 287 291 293 295 291 290 292
122 115 113 140 185 281 325 309 78 84 64 31 89 60 105 120 110 111 102 35 303 252 260 293 283 285 296 299 309 313 318 322 311 301 290 289 284 287 290 295 299 296 289 293
77 79 127 135 159 213 221 227 337 126 159 156 109 118 107 130 75 257 304 31 60 276 310 300 291 301 300 303 313 319 321 322 311 302 289 282 287 288 294 294 302 305 299 306
4 7 177 177 208 276 233 187 72 134 220 102 84 61 65 86 261 351 340 313 318 332 349 322 312 301 299 308 318 323 322 321 310 299 284 284 290 288 294 291 297 308 319 321
186 177 212 108 139 275 183 46 142 186 163 151 133 65 13 1 344 324 324 320 319 314 305 300 302 294 296 308 316 321 321 317 306 292 287 293 294 297 282 287 290 309 323 323
333 187 177 167 206 260 100 115 98 131 121 96 71 19 355 339 354 4 346 328 318 316 314 311 283 288 297 307 314 316 317 310 299 290 296 293 294 293 278 277 292 306 323 321
332 9 99 70 342 101 80 83 80 78 101 82 40 21 359 10 348 337 334 326 313 311 305 309 289 290 298 310 316 318 320 312 290 297 289 285 285 294 275 278 297 306 316 322
247 13 336 48 76 78 55 76 90 106 93 53 333 294 292 291 299 326 338 335 327 316 303 288 285 287 304 317 320 318 314 298 298 296 292 290 288 280 274 283 283 297 299 317
33 275 94 223 164 116 101 89 79 73 53 290 265 235 255 300 318 338 346 346 344 319 297 289 295 298 311 318 314 314 319 301 301 306 298 299 288 279 259 298 310 316 295 297